This is the latest recevied weather packets stored in our database for station/object DL5DI-H. If no packets are shown the sender has not sent any weather packets the latest 10 day(s).
| Time | Temp. | Humidity | Pressure | Rain* | Wind** | Luminosity | Snow |
|---|---|---|---|---|---|---|---|
| 1777044000 | 20.56° C | 41% | 1021.9 hPa | 0 mm | - | - | - |
| 1777043404 | 20° C | 41% | 1022 hPa | 0 mm | - | - | - |
| 1777042801 | 20° C | 41% | 1022.1 hPa | 0 mm | - | - | - |
| 1777042204 | 20° C | 41% | 1022.1 hPa | 0 mm | - | - | - |
| 1777041601 | 19.44° C | 40% | 1022.2 hPa | 0 mm | - | - | - |
| 1777040401 | 19.44° C | 41% | 1022.4 hPa | 0 mm | - | - | - |
| 1777039804 | 19.44° C | 41% | 1022.6 hPa | 0 mm | - | - | - |
| 1777039201 | 19.44° C | 41% | 1022.6 hPa | 0 mm | - | - | - |
| 1777038605 | 19.44° C | 41% | 1022.6 hPa | 0 mm | - | - | - |
| 1777037405 | 18.89° C | 39% | 1022.9 hPa | 0 mm | - | - | - |
| 1777036804 | 18.89° C | 39% | 1022.9 hPa | 0 mm | - | - | - |
| 1777036200 | 18.33° C | 38% | 1023 hPa | 0 mm | - | - | - |
| 1777035604 | 17.78° C | 41% | 1023.2 hPa | 0 mm | - | - | - |
| 1777035004 | 17.78° C | 41% | 1023.2 hPa | 0 mm | - | - | - |
| 1777034401 | 17.78° C | 38% | 1023.2 hPa | 0 mm | - | - | - |
| 1777033804 | 17.22° C | 43% | 1023.3 hPa | 0 mm | - | - | - |
| 1777033201 | 17.22° C | 43% | 1023.3 hPa | 0 mm | - | - | - |
| 1777032601 | 16.67° C | 43% | 1023.3 hPa | 0 mm | - | - | - |
| 1777032001 | 16.67° C | 45% | 1023.4 hPa | 0 mm | - | - | - |
| 1777031404 | 16.67° C | 46% | 1023.5 hPa | 0 mm | - | - | - |
| 1777030800 | 16.11° C | 46% | 1023.5 hPa | 0 mm | - | - | - |
| 1777030200 | 16.11° C | 45% | 1023.6 hPa | 0 mm | - | - | - |
| 1777029604 | 15.56° C | 44% | 1023.7 hPa | 0 mm | - | - | - |
| 1777029000 | 15.56° C | 45% | 1023.7 hPa | 0 mm | - | - | - |
| 1777028400 | 15° C | 44% | 1023.8 hPa | 0 mm | - | - | - |
* Rain latest hour (hover to see other rain measurements)
** Current wind speed in m/s (hover to see current wind gust speed)